User: anonymous   Login
Location: Castelbiague
(43.0361°N, 0.9246°E)
Time: 21:36:49
(UTC+00:00)
Language:

FENGYUN 1C DEB - Orbit

View from above orbital plane
View from above orbital plane
View from above satellite
View from above satellite

Ground track
Ground track

The orbit data is extracted from the following two-line orbital elements,

1 32245U 99025CWT 22021.29217432  .00001079  00000-0  26104-3 0  9991
2 32245  98.5525 146.2951 0153205  39.2263 321.9914 14.48310871453751
Epoch (UTC): 21 January 2022 07:00:43
Eccentricity: 0.0153205
inclination: 98.5525°
perigee height: 622 km
apogee height: 840 km
right ascension of ascending node: 146.2951°
argument of perigee: 39.2263°
revolutions per day: 14.48310871
mean anomaly at epoch: 321.9914°
orbit number at epoch: 45375

The dashed part of the orbit path shows where the satellite is in the earth's shadow,  

DLR